Regional Weather Roundup
Issued by NWS

Home | Current Version | Previous Version | Graphics & Text | Print | Product List | Glossary On
Versions: 1 2 3 4 5 6 7 8 9 10 11 12 13 14 15 16 17 18 19 20 21 22 23 24 25 26 27 28 29 30 31 32 33 34 35 36 37 38 39 40 41 42 43 44 45 46 47 48 49 50
000
ASUS43 KLOT 261900
RWRIL

ILLINOIS REGIONAL WEATHER ROUNDUP
NATIONAL WEATHER SERVICE CHICAGO/ROMEOVILLE IL
100 PM CST MON JAN 26 2015

NOTE: "FAIR" INDICATES FEW OR NO CLOUDS BELOW 12,000 FEET WITH NO
SIGNIFICANT WEATHER AND/OR OBSTRUCTIONS TO VISIBILITY.

* THESE STATIONS ARE NOT UNDER NWS QUALITY CONTROL. THEY ALSO MAY NOT
  REPORT WEATHER SUCH AS PRECIPITATION OR FOG.

ILZ001-002-007-009-015-016-024-262000-
NORTHWEST ILLINOIS

CITY           SKY/WX    TMP DP  RH WIND       PRES   REMARKS
MOLINE         CLOUDY    28  24  85 S8        29.81F WCI  20
STERLING*      CLOUDY    25  19  80 SE6       29.84F WCI  18
$$

ILZ003-004-008-010-011-017-018-262000-
NORTH CENTRAL ILLINOIS

CITY           SKY/WX    TMP DP  RH WIND       PRES   REMARKS
ROCKFORD       FLURRIES  23  18  81 S10       29.87F WCI  12
$$

ILZ005-006-012>014-019>023-262000-
NORTHEAST ILLINOIS

CITY           SKY/WX    TMP DP  RH WIND       PRES   REMARKS
CHICAGO-OHARE  FLURRIES  26  17  68 SW8       29.88F WCI  18
CHICAGO-MIDWAY CLOUDY    28  19  69 W9        29.90F WCI  19
AURORA         CLOUDY    26  17  68 S7        29.88F WCI  18
WAUKEGAN       CLOUDY    27  16  63 VRB3      29.86F
DUPAGE AIRPORT LGT SNOW  25  18  74 S7        29.87F WCI  17
WHEELING       CLOUDY    27  16  63 SW5       29.90F WCI  22
NORTHERLY ISL    N/A     27  18  69 S6          N/A  WCI  21
$$

LMZ740>746-262000-
SOUTHERN LAKE MICHIGAN

STATION/POSITION SKY/WX   TEMP    WIND        PRES    VSBY  WAVE
                          AIR SEA DIR/SP/G                  HT/PER
                          (F)     (DEG/KT/KT) (MB)    (MI)  (FT/S)
WAUKEGAN HARBOR            27      CALM  /  8   N/A
HARRISON CRIB              24     160/  8/ 11   N/A
BURNHAM HARBOR             27     190/  6/  7   N/A
CALUMET HARBOR             26     200/  4/  7   N/A
MICHIGAN CITY              22     180/  2/  4   N/A
$$

ILZ025>027-034>036-040-047-049-050-058-095>099-262000-
WEST-CENTRAL ILLINOIS

CITY           SKY/WX    TMP DP  RH WIND       PRES   REMARKS
QUINCY         MOSUNNY   36  31  82 S13       29.82F WCI  27
$$

ILZ028>032-037-038-041>044-048-051>054-059>061-262000-
CENTRAL ILLINOIS

CITY           SKY/WX    TMP DP  RH WIND       PRES   REMARKS
BLOOMINGTON    SNOW      27  23  86 SW8       29.90F VSB 1/2 WCI  18
DECATUR        LGT SNOW  27  26  96 SW7       29.93F VSB 1   WCI  19
PEORIA         CLOUDY    27  23  85 S10       29.88F WCI  17
SPRINGFIELD    LGT SNOW  30  26  85 S8        29.91F FOG     WCI  22
TAYLORVILLE    NOT AVBL
$$

ILZ033-039-045-046-055>057-062-063-262000-
EAST-CENTRAL ILLINOIS

CITY           SKY/WX    TMP DP  RH WIND       PRES   REMARKS
CHAMPAIGN      CLOUDY    27  21  78 W6        29.92F WCI  20
MATTOON        CLOUDY    28  19  69 W8        29.94S WCI  20
$$

ILZ079-100>102-262000-
SOUTHWEST ILLINOIS

CITY           SKY/WX    TMP DP  RH WIND       PRES   REMARKS
ALTON          CLOUDY    32  27  80 S10       29.95F WCI  24
BELLEVILLE     CLOUDY    34  28  77 W3        29.95F
CAHOKIA*       CLOUDY    35  27  72 VRB5      29.95F WCI  31
$$

ILZ064>066-069>071-074>076-080>082-084>086-088>090-092>094-262000-
SOUTH-CENTRAL ILLINOIS

CITY           SKY/WX    TMP DP  RH WIND       PRES   REMARKS
CARBONDALE     CLOUDY    33  25  72 W12       29.98F WCI  24
MARION         CLOUDY    34  25  69 NW12      29.99F WCI  25
MT. VERNON     CLOUDY    30  19  64 W6        29.97F WCI  24
$$

ILZ067-068-072-073-078-083-087-091-262000-
SOUTHEAST ILLINOIS

CITY           SKY/WX    TMP DP  RH WIND       PRES   REMARKS
LAWRENCEVILLE  CLOUDY    29  24  82 W8        29.96F WCI  21
CARMI*         CLOUDY    34  27  75 W9        29.97F WCI  26
$$

ABBREVIATIONS USED IN REMARKS
   TC - TEMPERATURE IN CELSIUS
  WCI - WIND CHILL INDEX
   HX - HEAT INDEX
  VSB - VISIBILITY
$$



USA.gov is the U.S. government's official web portal to all federal, state and local government web resources and services.